Date,TemperatureHighF,TemperatureAvgF,TemperatureLowF,DewpointHighF,DewpointAvgF,DewpointLowF,HumidityHigh,HumidityAvg,HumidityLow,PressureMaxIn,PressureMinIn,WindSpeedMaxMPH,WindSpeedAvgMPH,GustSpeedMaxMPH,PrecipitationSumIn
2013-2-1,73,63,53,55,49,40,74,60,49,0.00,40.00,10,6,0,0.00
2013-2-2,73,64,56,55,50,38,87,62,47,0.00,40.00,10,5,0,0.00
2013-2-3,74,64,55,56,50,38,93,65,28,0.00,40.00,8,4,0,0.00
2013-2-4,75,63,51,55,49,40,83,62,35,0.00,40.00,8,3,0,0.00
2013-2-5,78,67,54,63,59,52,94,76,54,0.00,40.00,7,3,0,0.00
2013-2-6,80,71,61,66,63,59,95,78,56,0.00,40.00,9,4,0,0.00
2013-2-7,81,74,67,66,64,61,87,71,56,0.00,40.00,9,5,0,0.00
2013-2-8,85,74,69,72,69,60,93,82,60,0.00,40.00,11,5,0,0.03
2013-2-9,79,71,64,69,63,58,95,77,65,0.00,40.00,14,7,0,0.00
2013-2-10,76,72,70,67,62,59,80,70,57,0.00,40.00,14,9,0,0.00
2013-2-11,79,74,70,66,64,63,82,73,64,0.00,40.00,10,7,0,0.00
2013-2-12,85,74,64,70,66,62,94,78,49,0.00,40.00,12,5,0,0.00
2013-2-13,85,76,69,73,70,66,95,81,65,0.00,40.00,12,6,0,0.00
2013-2-14,85,74,63,73,68,61,93,84,59,0.00,40.00,15,6,0,0.19
2013-2-15,72,66,63,68,65,61,96,93,84,0.00,40.00,8,3,0,0.91
2013-2-16,74,66,56,64,57,47,95,76,40,0.00,40.00,14,7,0,0.00
2013-2-17,57,52,46,47,31,21,75,46,27,0.00,40.00,12,7,0,0.00
2013-2-18,69,60,48,57,46,36,69,61,51,0.00,40.00,14,7,0,0.00
2013-2-19,77,71,62,66,62,55,92,73,64,0.00,40.00,11,6,0,0.00
2013-2-20,78,71,65,67,65,60,94,82,56,0.00,40.00,11,4,0,0.00
2013-2-21,80,74,67,68,66,64,91,78,61,0.00,40.00,10,5,0,0.00
2013-2-22,81,76,73,71,70,67,88,81,67,0.00,40.00,11,8,0,0.00
2013-2-23,84,77,73,72,71,68,91,79,63,0.00,40.00,11,7,0,0.00
2013-2-24,88,78,72,74,71,65,95,80,48,0.00,40.00,9,4,0,0.00
2013-2-25,85,77,69,73,70,66,93,79,59,0.00,40.00,13,5,0,0.00
2013-2-26,85,79,75,73,71,69,89,77,59,0.00,40.00,15,9,0,0.03
2013-2-27,77,71,66,73,67,64,93,87,69,0.00,40.00,7,4,0,0.36
2013-2-28,70,65,61,64,56,49,94,72,51,0.00,40.00,7,4,0,0.00